Station: Tasman Island  

  Atmospheric Gas Attenuation - ITU Rec 676-11   ----------------- dB/100km -----------------
Date Time Temp RH % AH g/m3 Dew Point Wind Direction Speed kph Gust kph Barometer mB Rainfall Since 9am 24GHz 47GHz 76GHz 122GHz 134GHz 241GHz
09/05 05:30 11.7 80 8.37 8.4 9 30 1018.5 0.4 19.2 26.3 40.2 105.3 98.4 338.2
09/05 05:20 11.7 79 8.26 8.3 11 22 1018.4 0.4 19.0 26.1 39.7 104.1 96.9 333.0
09/05 05:10 11.8 80 8.42 8.4 13 20 1018.3 0.4 19.3 26.4 40.3 105.7 99.0 340.1
09/05 05:00 11.7 79 8.26 8.2 11 32 1018.1 0.4 19.0 26.1 39.7 104.1 96.9 332.9
09/05 04:50 11.7 79 8.26 8.3 6 19 1017.9 0.4 19.0 26.1 39.7 104.0 96.9 332.9
09/05 04:40 11.7 79 8.26 8.3 6 13 1017.8 0.4 19.0 26.1 39.7 104.0 96.9 332.8
09/05 04:30 11.7 79 8.26 8.2 11 37 1017.7 0.4 19.0 26.1 39.7 104.0 96.9 332.8
09/05 04:20 11.8 78 8.21 8.2 7 20 1017.8 0.4 18.8 26.0 39.4 103.4 96.1 330.1
09/05 04:10 11.8 80 8.42 8.4 19 33 1017.7 0.4 19.3 26.4 40.3 105.6 98.9 340.0
09/05 04:00 11.7 79 8.26 8.2 9 30 1017.8 0.4 19.0 26.1 39.7 104.0 96.9 332.8
09/05 03:50 11.8 78 8.21 8.2 7 32 1017.7 0.4 18.8 26.0 39.4 103.3 96.1 330.0
09/05 03:40 11.7 79 8.26 8.3 6 13 1017.5 0.4 19.0 26.1 39.7 104.0 96.9 332.8
09/05 03:30 11.6 80 8.32 8.3 9 32 1017.3 0.4 19.1 26.2 39.9 104.8 97.8 336.0
09/05 03:20 11.5 81 8.37 8.3 20 32 1017.4 0.4 19.2 26.4 40.2 105.5 98.6 338.8
09/05 03:10 11.6 79 8.21 8.2 7 28 1017.3 0.4 18.9 26.1 39.5 103.6 96.3 330.8
09/05 03:00 11.5 80 8.26 8.2 11 37 1017.2 0.4 19.0 26.2 39.7 104.2 97.1 333.5
09/05 02:50 11.5 79 8.16 8.1 9 26 1017.1 0.4 18.8 26.0 39.3 103.1 95.7 328.8
09/05 02:40 11.5 81 8.37 8.3 15 30 1017.2 0.4 19.2 26.3 40.2 105.4 98.6 338.7
09/05 02:30 11.4 80 8.21 8.1 11 41 1017.3 0.4 18.9 26.1 39.6 103.8 96.5 331.6
09/05 02:20 11.3 81 8.26 8.1 4 11 1017.3 0.4 19.0 26.2 39.9 104.5 97.3 334.4
09/05 02:10 11.3 82 8.37 8.3 13 33 1017.3 0.4 19.2 26.4 40.3 105.7 98.8 339.6
09/05 02:00 11.2 81 8.21 8.1 11 32 1017.4 0.4 18.9 26.2 39.7 104.1 96.8 332.5
09/05 01:50 11.2 79 8.01 7.8 17 32 1017.5 0.4 18.4 25.8 38.9 101.9 94.1 323.1
09/05 01:40 11.2 79 8.01 7.7 9 19 1017.5 0.4 18.4 25.8 38.9 101.9 94.1 323.1
09/05 01:30 11 79 7.91 7.5 11 37 1017.5 0.4 18.2 25.7 38.6 101.1 93.0 319.2
09/05 01:20 11 79 7.91 7.5 9 20 1017.5 0.4 18.2 25.7 38.6 101.1 93.0 319.2
09/05 01:10 10.9 78 7.76 7.2 15 33 1017.7 0.4 17.9 25.5 38.0 99.6 91.1 312.6
09/05 01:00 10.8 80 7.91 7.5 11 39 1017.5 0.4 18.2 25.8 38.7 101.4 93.3 320.0
09/05 00:50 10.6 80 7.81 7.4 17 30 1017.4 0.4 18.0 25.7 38.4 100.5 92.1 316.1
09/05 00:40 10.4 80 7.71 7.2 9 26 1017.3 0.4 17.8 25.6 38.0 99.7 91.0 312.2
09/05 00:30 10.4 81 7.81 7.3 9 30 1017.2 0.4 18.1 25.7 38.4 100.8 92.4 316.9
09/05 00:20 10.6 80 7.81 7.3 6 13 1017 0.4 18.0 25.7 38.3 100.5 92.1 316.0
09/05 00:10 10.4 80 7.71 7.1 13 28 1016.9 0.4 17.8 25.6 38.0 99.6 91.0 312.1
09/05 00:00 10.3 81 7.76 7.2 15 37 1017 0.4 18.0 25.7 38.3 100.3 91.8 314.8
08/05 23:50 10.3 80 7.66 7 19 32 1017 0.4 17.7 25.5 37.9 99.2 90.4 310.1
08/05 23:40 10.4 80 7.71 7.2 7 15 1017.2 0.4 17.8 25.6 38.0 99.7 91.0 312.1
08/05 23:30 10.4 81 7.81 7.3 11 33 1017.1 0.4 18.1 25.7 38.4 100.7 92.4 316.8
08/05 23:20 10.4 82 7.9 7.4 7 15 1017.2 0.4 18.2 25.9 38.8 101.7 93.6 321.1
08/05 23:10 10.4 80 7.71 7.2 19 33 1017.3 0.4 17.8 25.6 38.0 99.7 91.0 312.2
08/05 23:00 10.4 83 8 7.6 11 43 1017.5 0.4 18.5 26.1 39.2 102.9 95.0 325.9
08/05 22:50 10.3 84 8.05 7.7 7 15 1017.7 0.4 18.6 26.2 39.5 103.6 95.8 328.8
08/05 22:40 10.3 80 7.66 7.1 11 24 1017.9 0.4 17.7 25.5 37.9 99.3 90.5 310.4
08/05 22:30 10.3 82 7.85 7.4 11 43 1017.9 0.4 18.1 25.9 38.7 101.4 93.1 319.3
08/05 22:20 10.3 82 7.85 7.3 9 20 1017.9 0.4 18.1 25.9 38.7 101.4 93.1 319.3
08/05 22:10 10.4 82 7.9 7.4 9 24 1017.9 0.4 18.2 25.9 38.8 101.8 93.6 321.3
08/05 22:00 10.4 82 7.9 7.5 17 41 1017.9 0.4 18.2 25.9 38.8 101.8 93.6 321.3
08/05 21:50 11 82 8.21 8 13 32 1017.5 0.4 18.9 26.2 39.8 104.4 97.1 333.4
08/05 21:40 10.9 80 7.96 7.6 24 43 1017.4 0.4 18.4 25.8 38.8 101.8 93.8 321.9
08/05 21:30 10.9 82 8.16 8 30 72 1017.3 0.4 18.8 26.2 39.6 103.9 96.5 331.4
08/05 21:20 10.8 80 7.91 7.6 26 44 1017.4 0.4 18.2 25.8 38.7 101.3 93.2 320.0
08/05 21:10 10.9 80 7.96 7.6 39 63 1017.4 0.4 18.4 25.8 38.8 101.8 93.8 321.9
08/05 21:00 10.9 81 8.06 7.8 33 74 1017.2 0.4 18.6 26.0 39.2 102.8 95.1 326.6
08/05 20:50 10.9 80 7.96 7.7 32 63 1016.9 0.4 18.4 25.8 38.8 101.7 93.8 321.8
08/05 20:40 10.9 80 7.96 7.7 32 57 1016.9 0.4 18.4 25.8 38.8 101.7 93.8 321.8
08/05 20:30 10.8 83 8.21 8 30 61 1016.9 0.4 18.9 26.3 39.9 104.6 97.3 334.1
08/05 20:20 10.7 86 8.45 8.4 35 59 1016.9 0.4 19.4 26.7 40.9 107.4 100.7 346.0
08/05 20:10 10.8 83 8.21 8 22 39 1016.7 0.4 18.9 26.3 39.9 104.6 97.2 334.0
08/05 20:00 10.7 79 7.76 7.2 28 65 1016.7 0.4 17.9 25.6 38.1 99.8 91.3 313.2
08/05 19:50 10.8 79 7.81 7.3 22 50 1016.8 0.4 18.0 25.6 38.2 100.2 91.9 315.1
08/05 19:40 10.7 75 7.37 6.4 33 54 1016.7 0.4 17.1 24.9 36.5 95.6 86.1 295.0
08/05 19:30 10.7 78 7.66 7 32 65 1016.6 0.4 17.7 25.4 37.7 98.7 90.0 308.5
08/05 19:20 10.7 80 7.86 7.4 30 61 1016.6 0.4 18.1 25.7 38.5 100.9 92.6 317.8
08/05 19:10 10.5 79 7.66 7 39 63 1016.3 0.4 17.7 25.4 37.7 98.9 90.2 309.2
08/05 19:00 10.4 77 7.42 6.5 28 56 1016.1 0.4 17.2 25.1 36.8 96.4 87.1 298.3
08/05 18:50 10.4 77 7.42 6.5 28 44 1016.2 0.4 17.2 25.1 36.8 96.4 87.1 298.3
08/05 18:40 10.6 77 7.52 6.7 33 52 1016.1 0.4 17.4 25.2 37.1 97.2 88.2 302.2
08/05 18:30 10.5 72 6.98 5.7 28 69 1016.1 0.4 16.3 24.3 35.0 91.6 81.2 277.7
08/05 18:20 10.3 73 6.99 5.8 33 63 1016.1 0.4 16.3 24.4 35.1 91.9 81.5 278.8
08/05 18:10 10.3 72 6.9 5.6 22 56 1016.1 0.4 16.1 24.3 34.8 91.0 80.3 274.7
08/05 18:00 10.3 77 7.38 6.5 35 72 1016.1 0.4 17.1 25.0 36.7 96.1 86.6 296.8
08/05 17:50 10.2 71 6.76 5.3 43 59 1016 0.4 15.8 24.1 34.3 89.6 78.6 268.7
08/05 17:40 10.1 71 6.72 5.2 35 57 1015.9 0.4 15.7 24.0 34.2 89.3 78.2 267.2
08/05 17:30 10.2 78 7.42 6.5 30 57 1015.8 0.4 17.2 25.1 36.9 96.6 87.3 299.0
08/05 17:20 9.9 79 7.38 6.4 30 54 1015.7 0.4 17.2 25.1 36.9 96.6 87.1 298.2
08/05 17:10 9.6 87 7.97 7.5 32 46 1015.8 0.4 18.4 26.2 39.4 103.4 95.4 327.4
08/05 17:00 9.3 92 8.27 8.1 26 65 1015.8 0.4 19.1 26.8 40.9 107.2 99.9 343.2
08/05 16:50 9.3 91 8.18 7.9 15 41 1015.6 0.4 18.9 26.6 40.5 106.1 98.7 338.8
08/05 16:40 9.7 90 8.3 8.1 56 76 1015.3 0.4 19.1 26.7 40.7 106.9 99.8 342.7
08/05 16:30 9.5 90 8.19 7.9 28 61 1015.3 0.4 18.9 26.6 40.4 106.0 98.5 338.3
08/05 16:20 9 91 8.03 7.6 20 39 1015.4 0.4 18.6 26.5 40.0 104.8 96.9 332.7
08/05 16:10 8.9 91 7.97 7.6 32 57 1015.3 0.4 18.5 26.4 39.8 104.3 96.2 330.2
08/05 16:00 9.3 92 8.27 8.1 39 83 1015 0.4 19.1 26.8 40.8 107.1 99.9 343.0
08/05 15:50 8.8 90 7.84 7.2 28 46 1015.1 0.4 18.2 26.2 39.3 103.0 94.5 324.3
08/05 15:40 9.3 90 8.09 7.7 44 59 1014.9 0.2 18.7 26.4 40.1 105.1 97.4 334.2
08/05 15:30 9.6 89 8.16 7.9 46 70 1014.8 0.2 18.8 26.5 40.2 105.4 97.9 336.3
08/05 15:20 9.7 85 7.84 7.3 54 65 1014.8 0.2 18.2 25.9 38.8 101.7 93.4 320.5
08/05 15:10 8.9 90 7.89 7.3 57 70 1014.4 0.2 18.3 26.2 39.4 103.3 95.1 326.1
08/05 15:00 9.4 90 8.14 7.8 24 54 1014.6 0.2 18.8 26.5 40.2 105.5 97.9 336.1
08/05 14:50 9.1 90 7.99 7.5 28 43 1014.6 0.2 18.5 26.3 39.7 104.2 96.2 330.1
08/05 14:40 9.6 85 7.79 7.3 30 56 1014.7 0.2 18.0 25.8 38.6 101.3 92.9 318.5
08/05 14:30 9.5 86 7.83 7.3 46 67 1014.4 0.2 18.1 25.9 38.8 101.8 93.5 320.7
08/05 14:20 9.2 85 7.59 6.9 54 69 1014.3 0.2 17.6 25.6 38.0 99.6 90.6 310.5
08/05 14:10 9.4 83 7.51 6.6 33 44 1014.2 0.2 17.5 25.4 37.6 98.4 89.3 305.9
08/05 14:00 10.1 80 7.57 6.8 41 72 1013.9 0.2 17.6 25.3 37.5 98.2 89.2 305.9
08/05 13:50 9.6 85 7.79 7.3 39 56 1013.7 0.2 18.0 25.8 38.6 101.2 92.8 318.2
08/05 13:40 9.6 81 7.42 6.5 50 74 1013.6 0.2 17.3 25.2 37.1 97.1 87.8 300.7
08/05 13:30 9.6 81 7.42 6.5 41 74 1013.6 0.2 17.3 25.2 37.1 97.1 87.8 300.7
08/05 13:20 9.1 87 7.72 7 35 56 1013.6 0.2 17.9 25.8 38.5 101.1 92.4 316.9
08/05 13:10 9.1 87 7.72 7 48 70 1013.5 0.2 17.9 25.8 38.5 101.1 92.4 316.9
08/05 13:00 8.9 85 7.45 6.5 41 80 1013.5 0.2 17.3 25.4 37.5 98.3 89.0 304.8

Last Refresh: 09-May-2026 05:10:26

Bureau of Meteorology